When you browse on this site, cookies collect data to enhance your experience and personalize the content and advertising you see.
Visit our Privacy Policy to learn more. By continuing to use the site, you agree to this use of cookies and data.

Stündliche Wetter San Miguel de Tucumán

Heute, 14 Juli, Dienstag

Zeit Temperatur Niederschläge Wind Luftdruck Luftfeuchtigkeit
00:00 +10°C° 0 mm 0 m/S 726 mmHg 78%
01:00 +9°C° 0 mm 0 m/S 726 mmHg 79%
02:00 +8°C° 0 mm 0 m/S 725 mmHg 81%
03:00 +8°C° 0 mm 0 m/S 725 mmHg 83%
04:00 +8°C° 0 mm 0 m/S 725 mmHg 84%
05:00 +7°C° 0 mm 0 m/S 725 mmHg 85%
06:00 +8°C° 0 mm 0 m/S 725 mmHg 83%
07:00 +8°C° 0 mm 0 m/S 725 mmHg 80%
08:00 +10°C° 0 mm 1 m/S 726 mmHg 77%
09:00 +12°C° 0 mm 1 m/S 726 mmHg 68%
10:00 +15°C° 0 mm 1 m/S 726 mmHg 59%
11:00 +17°C° 0 mm 2 m/S 726 mmHg 51%
12:00 +18°C° 0 mm 2 m/S 725 mmHg 48%
13:00 +19°C° 0 mm 2 m/S 724 mmHg 46%
14:00 +20°C° 0 mm 2 m/S 723 mmHg 43%
15:00 +20°C° 0 mm 2 m/S 722 mmHg 46%
16:00 +19°C° 0 mm 2 m/S 722 mmHg 48%
17:00 +19°C° 0 mm 3 m/S 721 mmHg 50%
18:00 +18°C° 0 mm 2 m/S 721 mmHg 54%
19:00 +17°C° 0 mm 2 m/S 721 mmHg 58%
20:00 +15°C° 0 mm 1 m/S 721 mmHg 62%
21:00 +15°C° 0 mm 1 m/S 721 mmHg 63%
22:00 +15°C° 0 mm 1 m/S 722 mmHg 64%
23:00 +14°C° 0 mm 1 m/S 722 mmHg 66%

Morgen, 15 Juli, Mittwoch

Zeit Temperatur Niederschläge Wind Luftdruck Luftfeuchtigkeit
00:00 +14°C° 0 mm 1 m/S 721 mmHg 68%
01:00 +13°C° 0 mm 1 m/S 721 mmHg 71%
02:00 +13°C° 0 mm 1 m/S 721 mmHg 73%
03:00 +12°C° 0 mm 1 m/S 720 mmHg 75%
04:00 +12°C° 0 mm 1 m/S 720 mmHg 77%
05:00 +11°C° 0 mm 1 m/S 720 mmHg 79%
06:00 +11°C° 0 mm 1 m/S 720 mmHg 78%
07:00 +11°C° 0 mm 1 m/S 720 mmHg 78%
08:00 +11°C° 0 mm 1 m/S 720 mmHg 77%
09:00 +14°C° 0 mm 1 m/S 720 mmHg 69%
10:00 +16°C° 0 mm 1 m/S 720 mmHg 60%
11:00 +19°C° 0 mm 1 m/S 720 mmHg 51%
12:00 +20°C° 0 mm 1 m/S 719 mmHg 49%
13:00 +21°C° 0 mm 1 m/S 719 mmHg 46%
14:00 +22°C° 0 mm 1 m/S 718 mmHg 43%
15:00 +21°C° 0 mm 2 m/S 718 mmHg 45%
16:00 +20°C° 0 mm 2 m/S 718 mmHg 47%
17:00 +20°C° 0 mm 2 m/S 718 mmHg 49%
18:00 +18°C° 0 mm 2 m/S 718 mmHg 55%
19:00 +16°C° 0 mm 1 m/S 719 mmHg 61%
20:00 +14°C° 0 mm 1 m/S 719 mmHg 68%
21:00 +13°C° 0 mm 1 m/S 720 mmHg 68%
22:00 +12°C° 0 mm 1 m/S 720 mmHg 69%
23:00 +11°C° 0 mm 1 m/S 720 mmHg 70%

übermorgen, 16 Juli, Donnerstag

Zeit Temperatur Niederschläge Wind Luftdruck Luftfeuchtigkeit
00:00 +11°C° 0 mm 1 m/S 720 mmHg 71%
01:00 +11°C° 0 mm 1 m/S 719 mmHg 72%
02:00 +11°C° 0 mm 1 m/S 719 mmHg 74%
03:00 +10°C° 0 mm 1 m/S 719 mmHg 74%
04:00 +10°C° 0 mm 1 m/S 719 mmHg 75%
05:00 +10°C° 0 mm 1 m/S 718 mmHg 76%
06:00 +10°C° 0 mm 1 m/S 719 mmHg 74%
07:00 +11°C° 0 mm 1 m/S 719 mmHg 71%
08:00 +11°C° 0 mm 1 m/S 720 mmHg 69%
09:00 +14°C° 0 mm 1 m/S 720 mmHg 61%
10:00 +18°C° 0 mm 1 m/S 720 mmHg 53%
11:00 +21°C° 0 mm 1 m/S 720 mmHg 45%
12:00 +22°C° 0 mm 1 m/S 720 mmHg 43%
13:00 +23°C° 0 mm 2 m/S 719 mmHg 42%
14:00 +24°C° 0 mm 2 m/S 718 mmHg 40%
15:00 +23°C° 0 mm 2 m/S 718 mmHg 43%
16:00 +23°C° 0 mm 2 m/S 718 mmHg 45%
17:00 +21°C° 0 mm 2 m/S 718 mmHg 48%
18:00 +20°C° 0 mm 1 m/S 718 mmHg 55%
19:00 +18°C° 0 mm 1 m/S 718 mmHg 61%
20:00 +15°C° 0 mm 1 m/S 719 mmHg 68%
21:00 +14°C° 0 mm 1 m/S 719 mmHg 70%
22:00 +14°C° 0 mm 1 m/S 719 mmHg 72%
23:00 +14°C° 0 mm 1 m/S 719 mmHg 74%

17 Juli, Freitag

Zeit Temperatur Niederschläge Wind Luftdruck Luftfeuchtigkeit
00:00 +13°C° 0 mm 1 m/S 718 mmHg 75%
01:00 +13°C° 0 mm 1 m/S 718 mmHg 77%
02:00 +12°C° 0 mm 1 m/S 717 mmHg 79%
03:00 +12°C° 0 mm 1 m/S 717 mmHg 80%
04:00 +12°C° 0 mm 1 m/S 717 mmHg 80%
05:00 +12°C° 0 mm 1 m/S 716 mmHg 81%
06:00 +12°C° 0 mm 1 m/S 716 mmHg 79%
07:00 +13°C° 0 mm 1 m/S 716 mmHg 76%
08:00 +14°C° 0 mm 1 m/S 716 mmHg 73%
09:00 +16°C° 0 mm 1 m/S 716 mmHg 65%
10:00 +20°C° 0 mm 1 m/S 716 mmHg 57%
11:00 +23°C° 0 mm 1 m/S 716 mmHg 49%
12:00 +24°C° 0 mm 1 m/S 715 mmHg 46%
13:00 +26°C° 0 mm 1 m/S 714 mmHg 43%
14:00 +27°C° 0 mm 1 m/S 714 mmHg 40%
15:00 +26°C° 0 mm 1 m/S 713 mmHg 43%
16:00 +26°C° 0 mm 1 m/S 713 mmHg 46%
17:00 +25°C° 0 mm 1 m/S 713 mmHg 49%
18:00 +23°C° 0 mm 1 m/S 713 mmHg 53%
19:00 +21°C° 0 mm 1 m/S 713 mmHg 57%
20:00 +19°C° 0 mm 1 m/S 713 mmHg 61%
21:00 +19°C° 0 mm 1 m/S 713 mmHg 62%
22:00 +19°C° 0 mm 1 m/S 713 mmHg 63%
23:00 +18°C° 0 mm 1 m/S 713 mmHg 64%

18 Juli, Samstag

Zeit Temperatur Niederschläge Wind Luftdruck Luftfeuchtigkeit
00:00 +18°C° 0 mm 1 m/S 713 mmHg 64%
01:00 +18°C° 0 mm 1 m/S 713 mmHg 63%
02:00 +18°C° 0 mm 1 m/S 713 mmHg 63%
03:00 +18°C° 0 mm 1 m/S 713 mmHg 62%
04:00 +16°C° 0 mm 1 m/S 713 mmHg 61%
05:00 +16°C° 0 mm 1 m/S 713 mmHg 60%
06:00 +16°C° 0 mm 1 m/S 713 mmHg 57%
07:00 +18°C° 0 mm 1 m/S 714 mmHg 54%
08:00 +18°C° 0 mm 1 m/S 715 mmHg 51%
09:00 +21°C° 0 mm 1 m/S 715 mmHg 47%
10:00 +23°C° 0 mm 1 m/S 715 mmHg 43%
11:00 +26°C° 0 mm 1 m/S 715 mmHg 39%
12:00 +27°C° 0 mm 1 m/S 715 mmHg 38%
13:00 +28°C° 0 mm 1 m/S 714 mmHg 37%
14:00 +28°C° 0 mm 2 m/S 714 mmHg 36%
15:00 +27°C° 0 mm 1 m/S 714 mmHg 40%
16:00 +27°C° 0 mm 1 m/S 714 mmHg 43%
17:00 +24°C° 0 mm 0 m/S 714 mmHg 46%
18:00 +24°C° 0 mm 1 m/S 714 mmHg 50%
19:00 +22°C° 0 mm 1 m/S 714 mmHg 53%
20:00 +21°C° 0 mm 1 m/S 715 mmHg 57%
21:00 +21°C° 0 mm 1 m/S 715 mmHg 56%
22:00 +21°C° 0 mm 1 m/S 714 mmHg 54%
23:00 +19°C° 0 mm 2 m/S 714 mmHg 53%

19 Juli, Sonntag

Zeit Temperatur Niederschläge Wind Luftdruck Luftfeuchtigkeit
00:00 +20°C° 0 mm 1 m/S 714 mmHg 54%
01:00 +20°C° 0 mm 1 m/S 714 mmHg 55%
02:00 +19°C° 0 mm 1 m/S 713 mmHg 56%
03:00 +19°C° 0 mm 1 m/S 713 mmHg 56%
04:00 +19°C° 0 mm 1 m/S 713 mmHg 56%
05:00 +18°C° 0 mm 1 m/S 713 mmHg 57%
06:00 +19°C° 0 mm 1 m/S 713 mmHg 56%
07:00 +19°C° 0 mm 1 m/S 714 mmHg 56%
08:00 +19°C° 0 mm 1 m/S 714 mmHg 55%
09:00 +22°C° 0 mm 1 m/S 714 mmHg 50%
10:00 +25°C° 0 mm 1 m/S 714 mmHg 46%
11:00 +28°C° 0 mm 1 m/S 714 mmHg 41%
12:00 +29°C° 0 mm 1 m/S 714 mmHg 40%
13:00 +30°C° 0 mm 1 m/S 713 mmHg 39%
14:00 +31°C° 0 mm 1 m/S 712 mmHg 38%
15:00 +30°C° 0 mm 1 m/S 712 mmHg 41%
16:00 +29°C° 0 mm 1 m/S 712 mmHg 44%
17:00 +28°C° 0 mm 1 m/S 712 mmHg 47%
18:00 +27°C° 0 mm 1 m/S 712 mmHg 51%
19:00 +25°C° 0 mm 1 m/S 712 mmHg 56%
20:00 +23°C° 0 mm 1 m/S 713 mmHg 60%
21:00 +23°C° 0 mm 1 m/S 713 mmHg 61%
22:00 +22°C° 0 mm 1 m/S 713 mmHg 61%
23:00 +22°C° 0 mm 1 m/S 713 mmHg 62%
Mehr zeigen